This demonstration page uses our WeatherBlox Daily Observations layout. Learn more.

Left ArrowRight Arrow

39.01783, -85.05884

Hourly Observations for May 2, 2015

Temp ( °F °C ) Dew Point ( °F °C ) Humidity (%) Winds ( mph kmh ) Pressure ( in mb ) Visibility ( mi km ) Precip ( " mm )
12:52 am 00:52 Mostly Cloudy 52 11 43 6 72 72 W 3 6 30.09 1019 10 16 0.00 0.00
1:52 am 01:52 Mostly Cloudy 49 9.4 43 6.1 80 80 Calm 30.07 1018 10 16 0.00 0.00
2:52 am 02:52 Mostly Cloudy 52 11.1 41 5 66 66 Calm 30.06 1018 10 16 0.00 0.00
3:52 am 03:52 Mostly Cloudy 51 10.6 42 5.6 71 71 NW 5 7 30.07 1018 10 16 0.00 0.00
4:52 am 04:52 Mostly Cloudy 50 10 42 5.6 74 74 Calm 30.08 1019 10 16 0.00 0.00
5:52 am 05:52 Mostly Cloudy 51 10.6 41 5 69 69 NNW 3 6 30.09 1019 10 16 0.00 0.00
6:52 am 06:52 Cloudy 52 11.1 42 5.6 69 69 Calm 30.09 1019 10 16 0.00 0.00
7:52 am 07:52 Mostly Cloudy 47 8.3 43 6.1 86 86 Calm 30.11 1020 10 16 0.00 0.00
8:52 am 08:52 Mostly Cloudy 56 13.3 45 7.2 67 67 Calm 30.12 1020 10 16 0.00 0.00
9:52 am 09:52 Mostly Cloudy 62 16.7 45 7.2 54 54 Calm 30.12 1020 10 16 0.00 0.00
10:52 am 10:52 Partly Cloudy 68 20 44 6.7 42 42 Calm 30.11 1020 10 16 0.00 0.00
11:52 am 11:52 Partly Cloudy 71 21.7 44 6.7 38 38 Calm 30.12 1020 10 16 0.00 0.00
12:52 pm 12:52 Partly Cloudy 73 22.8 45 7.2 37 37 WNW 6 9 30.11 1020 10 16 0.00 0.00
1:52 pm 13:52 Partly Cloudy 72 22.2 44 6.7 37 37 VRB 6 9 30.09 1019 10 16 0.00 0.00
2:52 pm 14:52 Partly Cloudy 74 23.3 42 5.6 32 32 NNW 8 13 30.07 1018 10 16 0.00 0.00
3:52 pm 15:52 Mostly Cloudy 72 22.2 42 5.6 34 34 SW 5 7 30.04 1017 10 16 0.00 0.00
4:52 pm 16:52 Mostly Cloudy 73 22.8 43 6.1 34 34 W 7 11 30.03 1017 10 16 0.00 0.00
5:52 pm 17:52 Mostly Cloudy 74 23.3 45 7.2 36 36 WNW 8 13 30.02 1017 10 16 0.00 0.00
6:52 pm 18:52 Mostly Cloudy 72 22.2 44 6.7 37 37 W 9 15 30.02 1017 10 16 0.00 0.00
7:52 pm 19:52 Mostly Cloudy 71 21.7 42 5.6 35 35 WSW 5 7 30.03 1017 10 16 0.00 0.00
8:52 pm 20:52 Partly Cloudy 64 17.8 43 6.1 46 46 Calm 30.04 1017 10 16 0.00 0.00
9:52 pm 21:52 Partly Cloudy 63 17.2 42 5.6 47 47 Calm 30.05 1018 10 16 0.00 0.00
10:52 pm 22:52 Partly Cloudy 58 14.4 45 7.2 62 62 Calm 30.06 1018 10 16 0.00 0.00
11:52 pm 23:52 Partly Cloudy 57 13.9 46 7.8 67 67 Calm 30.05 1018 10 16 0.00 0.00

Powered by AerisWeather